Overview Statistics Trail Chart Weather Telemetry Raw packets
 

This is the latest recevied weather packets stored in our database for station/object KF7U. If no packets are shown the sender has not sent any weather packets the latest 10 day(s).

<< 66 67 68 69 70 71 72 >>
Time Temp. Humidity Pressure Rain* Wind** Luminosity Snow
1788200587 23.89° C 83% 1017.9 hPa 0 mm - - -
1788200289 23.33° C 83% 1017.9 hPa 0 mm - - -
1788199988 23.89° C 84% 1017.9 hPa 0 mm - - -
1788199687 23.33° C 83% 1018.3 hPa 0 mm - - -
1788199387 23.33° C 86% 1017.9 hPa 0 mm - - -
1788199087 23.33° C 87% 1017.9 hPa 0.25 mm - - -
1788198488 23.89° C 89% 1018.3 hPa 0.51 mm - - -
1788198188 23.89° C 89% 1018.3 hPa 0.51 mm - - -
1788197888 23.89° C 89% 1018.3 hPa 0.76 mm - - -
1788197587 23.33° C 89% 1018.3 hPa 0.76 mm - - -
1788197289 23.33° C 89% 1018.3 hPa 1.27 mm - - -
1788196987 23.33° C 88% 1018.3 hPa 1.27 mm - - -
1788196688 23.33° C 88% 1018.3 hPa 1.78 mm - - -
1788196389 23.33° C 88% 1018.3 hPa 1.78 mm - - -
1788196087 22.78° C 88% 1017.9 hPa 2.03 mm - - -
1788195788 22.78° C 88% 1017.6 hPa 2.03 mm - - -
1788195487 22.78° C 89% 1017.3 hPa 2.29 mm - - -
1788195188 22.78° C 89% 1017.3 hPa 2.03 mm - - -
1788194889 22.78° C 88% 1017.3 hPa 2.79 mm - - -
1788194589 22.78° C 88% 1017.6 hPa 2.54 mm - - -
1788194288 22.78° C 88% 1017.6 hPa 2.79 mm - - -
1788193988 22.78° C 88% 1017.6 hPa 2.54 mm - - -
1788193687 22.78° C 87% 1017.9 hPa 2.29 mm - - -
1788193388 22.78° C 87% 1017.9 hPa 1.78 mm - - -
1788193091 22.78° C 87% 1017.9 hPa 1.78 mm - - -

* Rain latest hour (hover to see other rain measurements)
** Current wind speed in m/s (hover to see current wind gust speed)